TimeEST,TemperatureF,Dew PointF,Humidity,Sea Level PressureIn,VisibilityMPH,Wind Direction,Wind SpeedMPH,Gust SpeedMPH,PrecipitationIn,Events,Conditions,WindDirDegrees,DateUTC
12:15 AM,24.8,19.4,80,30.30,10.0,Calm,Calm,-,N/A,,Clear,0,2012-12-31 05:15:00
12:35 AM,23.0,19.4,86,30.28,10.0,Calm,Calm,-,N/A,,Clear,0,2012-12-31 05:35:00
12:55 AM,23.0,19.4,86,30.28,10.0,Calm,Calm,-,N/A,,Clear,0,2012-12-31 05:55:00
1:15 AM,23.0,19.4,86,30.28,10.0,Calm,Calm,-,N/A,,Clear,0,2012-12-31 06:15:00
1:35 AM,23.0,19.4,86,30.27,10.0,Calm,Calm,-,N/A,,Clear,0,2012-12-31 06:35:00
1:55 AM,19.4,19.4,100,30.27,10.0,Calm,Calm,-,N/A,,Clear,0,2012-12-31 06:55:00
2:15 AM,21.2,19.4,93,30.27,10.0,Calm,Calm,-,N/A,,Clear,0,2012-12-31 07:15:00
2:35 AM,21.2,19.4,93,30.26,10.0,Calm,Calm,-,N/A,,Clear,0,2012-12-31 07:35:00
2:55 AM,23.0,19.4,86,30.28,10.0,Calm,Calm,-,N/A,,Clear,0,2012-12-31 07:55:00
3:15 AM,21.2,19.4,93,30.27,10.0,Calm,Calm,-,N/A,,Clear,0,2012-12-31 08:15:00
3:35 AM,21.2,19.4,93,30.26,10.0,SE,3.5,-,N/A,,Clear,130,2012-12-31 08:35:00
3:55 AM,21.2,19.4,93,30.25,10.0,SSE,3.5,-,N/A,,Clear,150,2012-12-31 08:55:00
4:15 AM,21.2,19.4,93,30.24,10.0,Calm,Calm,-,N/A,,Clear,0,2012-12-31 09:15:00
4:35 AM,24.8,19.4,80,30.23,10.0,South,3.5,-,N/A,,Clear,190,2012-12-31 09:35:00
4:55 AM,21.2,19.4,93,30.24,10.0,Calm,Calm,-,N/A,,Clear,0,2012-12-31 09:55:00
5:15 AM,19.4,17.6,93,30.23,10.0,South,3.5,-,N/A,,Clear,190,2012-12-31 10:15:00
5:35 AM,19.4,17.6,93,30.22,10.0,SE,3.5,-,N/A,,Clear,140,2012-12-31 10:35:00
5:55 AM,19.4,19.4,100,30.22,10.0,Calm,Calm,-,N/A,,Clear,0,2012-12-31 10:55:00
6:15 AM,21.2,19.4,93,30.24,10.0,Calm,Calm,-,N/A,,Clear,0,2012-12-31 11:15:00
6:35 AM,23.0,19.4,86,30.24,10.0,Calm,Calm,-,N/A,,Clear,0,2012-12-31 11:35:00
7:35 AM,21.2,17.6,86,30.24,10.0,Variable,3.5,-,N/A,,Clear,0,2012-12-31 12:35:00
7:55 AM,23.0,19.4,86,30.25,10.0,Calm,Calm,-,N/A,,Clear,0,2012-12-31 12:55:00
8:35 AM,28.4,17.6,64,30.24,10.0,WSW,4.6,-,N/A,,Clear,250,2012-12-31 13:35:00
8:55 AM,28.4,17.6,64,30.24,10.0,WSW,5.8,-,N/A,,Clear,250,2012-12-31 13:55:00
9:15 AM,28.4,19.4,69,30.24,10.0,WSW,5.8,-,N/A,,Clear,240,2012-12-31 14:15:00
9:35 AM,30.2,17.6,60,30.23,10.0,WSW,6.9,-,N/A,,Clear,240,2012-12-31 14:35:00
9:55 AM,30.2,17.6,60,30.23,10.0,WSW,6.9,-,N/A,,Clear,250,2012-12-31 14:55:00
10:15 AM,33.8,17.6,52,30.23,10.0,WSW,8.1,-,N/A,,Clear,240,2012-12-31 15:15:00
10:35 AM,33.8,17.6,52,30.25,10.0,Variable,5.8,-,N/A,,Clear,0,2012-12-31 15:35:00
10:55 AM,33.8,17.6,52,30.25,10.0,WSW,9.2,-,N/A,,Clear,250,2012-12-31 15:55:00
11:15 AM,33.8,17.6,52,30.24,10.0,Variable,6.9,-,N/A,,Clear,0,2012-12-31 16:15:00
11:35 AM,35.6,17.6,48,30.22,10.0,Variable,3.5,-,N/A,,Clear,0,2012-12-31 16:35:00
11:55 AM,35.6,17.6,48,30.20,10.0,Variable,5.8,-,N/A,,Clear,0,2012-12-31 16:55:00
12:15 PM,35.6,17.6,48,30.20,10.0,Variable,4.6,-,N/A,,Clear,0,2012-12-31 17:15:00
12:35 PM,35.6,15.8,44,30.18,10.0,Variable,5.8,-,N/A,,Clear,0,2012-12-31 17:35:00
12:55 PM,35.6,15.8,44,30.17,10.0,SW,5.8,-,N/A,,Clear,230,2012-12-31 17:55:00
1:15 PM,37.4,17.6,45,30.16,10.0,WSW,5.8,-,N/A,,Clear,250,2012-12-31 18:15:00
1:35 PM,37.4,15.8,41,30.15,10.0,Variable,4.6,-,N/A,,Clear,0,2012-12-31 18:35:00
1:55 PM,37.4,15.8,41,30.16,10.0,WSW,9.2,-,N/A,,Clear,240,2012-12-31 18:55:00
2:15 PM,37.4,17.6,45,30.15,10.0,WSW,4.6,-,N/A,,Clear,240,2012-12-31 19:15:00
2:35 PM,35.6,17.6,48,30.14,10.0,Variable,5.8,-,N/A,,Partly Cloudy,0,2012-12-31 19:35:00
2:55 PM,35.6,15.8,44,30.14,10.0,Variable,4.6,-,N/A,,Partly Cloudy,0,2012-12-31 19:55:00
3:15 PM,35.6,17.6,48,30.15,10.0,Variable,4.6,-,N/A,,Scattered Clouds,0,2012-12-31 20:15:00
3:35 PM,33.8,17.6,52,30.12,10.0,Variable,5.8,-,N/A,,Partly Cloudy,0,2012-12-31 20:35:00
3:55 PM,33.8,19.4,56,30.11,10.0,Calm,Calm,-,N/A,,Scattered Clouds,0,2012-12-31 20:55:00
4:15 PM,35.6,17.6,48,30.11,10.0,West,4.6,-,N/A,,Scattered Clouds,280,2012-12-31 21:15:00
4:35 PM,35.6,14.0,41,30.12,10.0,West,5.8,-,N/A,,Scattered Clouds,260,2012-12-31 21:35:00
4:55 PM,33.8,15.8,48,30.12,10.0,WSW,6.9,-,N/A,,Partly Cloudy,240,2012-12-31 21:55:00
5:15 PM,33.8,15.8,48,30.14,10.0,WSW,10.4,-,N/A,,Partly Cloudy,250,2012-12-31 22:15:00
5:35 PM,33.8,17.6,52,30.13,10.0,WSW,9.2,-,N/A,,Partly Cloudy,240,2012-12-31 22:35:00
5:55 PM,33.8,17.6,52,30.13,10.0,WSW,8.1,-,N/A,,Scattered Clouds,240,2012-12-31 22:55:00
6:15 PM,33.8,15.8,48,30.11,10.0,Variable,6.9,-,N/A,,Unknown,0,2012-12-31 23:15:00
6:35 PM,33.8,15.8,48,30.11,10.0,Variable,3.5,-,N/A,,Clear,0,2012-12-31 23:35:00
6:55 PM,33.8,15.8,48,30.10,10.0,Variable,3.5,-,N/A,,Clear,0,2012-12-31 23:55:00
7:15 PM,33.8,17.6,52,30.10,10.0,Calm,Calm,-,N/A,,Clear,0,2013-01-01 00:15:00
7:35 PM,33.8,17.6,52,30.10,10.0,West,6.9,-,N/A,,Clear,260,2013-01-01 00:35:00
7:55 PM,33.8,17.6,52,30.10,10.0,Variable,3.5,-,N/A,,Clear,0,2013-01-01 00:55:00
8:15 PM,33.8,19.4,56,30.09,10.0,Variable,5.8,-,N/A,,Clear,0,2013-01-01 01:15:00
8:35 PM,33.8,17.6,52,30.09,10.0,WSW,4.6,-,N/A,,Clear,240,2013-01-01 01:35:00
8:55 PM,33.8,19.4,56,30.07,10.0,Calm,Calm,-,N/A,,Clear,0,2013-01-01 01:55:00
9:35 PM,32.0,21.2,64,30.08,10.0,West,4.6,-,N/A,,Mostly Cloudy,280,2013-01-01 02:35:00
9:55 PM,33.8,21.2,60,30.08,10.0,SW,5.8,-,N/A,,Overcast,230,2013-01-01 02:55:00
10:35 PM,33.8,17.6,52,30.07,10.0,Variable,3.5,-,N/A,,Overcast,0,2013-01-01 03:35:00
11:55 PM,33.8,21.2,60,30.06,10.0,Variable,4.6,-,N/A,,Overcast,0,2013-01-01 04:55:00